Weather History for Crystal River, FL

Change the Weather History Date:

Thursday, January 31, 2013

  Actual Average (KBKV) Record (KBKV)
Temperature  
Mean Temperature 48 °F -  
Max Temperature 60 °F 67 °F 86 °F (2002)
Min Temperature 37 °F 44 °F 30 °F (2009)
Degree Days  
Heating Degree Days 16    
Moisture  
Dew Point 40 °F    
Average Humidity 64    
Maximum Humidity 100    
Minimum Humidity 31    
Precipitation  
Precipitation 0.06 in - - ()
Sea Level Pressure  
Sea Level Pressure 30.14 in    
Wind  
Wind Speed 5 mph (NW)    
Max Wind Speed 13 mph    
Max Gust Speed 18 mph    
Visibility 10 miles    
Events Rain    
Averages and records for this station are not official NWS values.
T = Trace of Precipitation, MM = Missing Value Source: NWS Daily Summary

Daily Weather History Graph

Daily Weather History Graph

Search for Another Location

Airport:

Trip Planner

Search our weather history database for the weather conditions in past years. The results will help you decide how hot, cold, wet, or windy it might be!

Date:

Astronomy

Jan. 31, 2013 Rise Set
Actual Time 7:19 AM EST 6:08 PM EST
Civil Twilight 6:54 AM EST 6:33 PM EST
Nautical Twilight 6:26 AM EST 7:01 PM EST
Astronomical Twilight 5:58 AM EST 7:29 PM EST
Moon 10:40 PM EST (1/31) 9:44 AM EST (1/31)
Length of Visible Light 11h 39m
Length of Day
10h 49m
Waning Gibbous, 80% of the Moon is Illuminated
Jan 31
Waning Gibbous
Feb 3
Last Quarter
Feb 10
New
Feb 17
First Quarter
Feb 25
Full

Hourly Weather History & Observations

Time (EST) Temp. Windchill Dew Point Humidity Pressure Visibility Wind Dir Wind Speed Gust Speed Precip Events Conditions
12:15 AM 55.4 °F - 55.4 °F 100% 29.99 in 4.0 mi West 5.8 mph - 0.02 in Rain Heavy Rain
12:35 AM 55.4 °F - 53.6 °F 94% 29.98 in 5.0 mi Calm Calm - 0.03 in Rain Heavy Rain
12:55 AM 55.4 °F - 55.4 °F 100% 29.97 in 5.0 mi Calm Calm - 0.04 in Rain Rain
1:15 AM 55.4 °F - 55.4 °F 100% 29.97 in 7.0 mi Calm Calm - 0.01 in Rain Rain
1:35 AM 55.4 °F - 55.4 °F 100% 29.98 in 10.0 mi Calm Calm - 0.01 in   Light Drizzle
1:55 AM 55.4 °F - 55.4 °F 100% 29.98 in 10.0 mi Calm Calm - 0.02 in Rain Rain
2:15 AM 55.4 °F - 55.4 °F 100% 29.99 in 10.0 mi Calm Calm - N/A   Overcast
2:35 AM 55.4 °F - 55.4 °F 100% 30.00 in 10.0 mi Calm Calm - N/A   Overcast
2:55 AM 55.4 °F - 55.4 °F 100% 30.00 in 10.0 mi Calm Calm - N/A   Overcast
3:15 AM 55.4 °F - 55.4 °F 100% 30.00 in 10.0 mi Calm Calm - N/A   Overcast
3:35 AM 57.2 °F - 53.6 °F 88% 30.00 in 10.0 mi WNW 6.9 mph - N/A   Overcast
3:55 AM 57.2 °F - 51.8 °F 82% 30.01 in 10.0 mi WNW 4.6 mph - N/A   Overcast
4:15 AM 59.0 °F - 51.8 °F 77% 30.01 in 10.0 mi WNW 5.8 mph - N/A   Overcast
4:35 AM 59.0 °F - 51.8 °F 77% 30.01 in 10.0 mi WNW 6.9 mph - N/A   Overcast
4:55 AM 59.0 °F - 50.0 °F 72% 30.02 in 10.0 mi WNW 8.1 mph - N/A   Mostly Cloudy
5:15 AM 57.2 °F - 48.2 °F 72% 30.02 in 10.0 mi WNW 8.1 mph - N/A   Scattered Clouds
5:35 AM 55.4 °F - 44.6 °F 67% 30.04 in 10.0 mi NW 9.2 mph - N/A   Clear
5:55 AM 55.4 °F - 46.4 °F 72% 30.05 in 10.0 mi NNW 8.1 mph - N/A   Scattered Clouds
6:15 AM 53.6 °F - 46.4 °F 77% 30.07 in 10.0 mi NW 6.9 mph - N/A   Scattered Clouds
6:35 AM 53.6 °F - 44.6 °F 72% 30.09 in 10.0 mi NNW 6.9 mph - N/A   Clear
6:55 AM 51.8 °F - 44.6 °F 76% 30.09 in 10.0 mi North 4.6 mph - N/A   Clear
7:15 AM 51.8 °F - 44.6 °F 76% 30.10 in 10.0 mi North 8.1 mph - N/A   Clear
7:55 AM 50.0 °F - 37.4 °F 62% 30.13 in 10.0 mi NNW 10.4 mph - N/A   Clear
8:15 AM 50.0 °F - 37.4 °F 62% 30.14 in 10.0 mi NNW 6.9 mph - N/A   Clear
8:35 AM 50.0 °F - 37.4 °F 62% 30.15 in 10.0 mi NNW 8.1 mph - N/A   Clear
8:55 AM 50.0 °F - 37.4 °F 62% 30.16 in 10.0 mi NNW 9.2 mph - N/A   Clear
9:15 AM 50.0 °F - 35.6 °F 58% 30.17 in 10.0 mi NW 6.9 mph - N/A   Clear
9:35 AM 50.0 °F - 33.8 °F 54% 30.19 in 10.0 mi NNW 9.2 mph - N/A   Clear
9:55 AM 51.8 °F - 32.0 °F 47% 30.19 in 10.0 mi NNW 10.4 mph 16.1 mph N/A   Clear
10:15 AM 51.8 °F - 32.0 °F 47% 30.20 in 10.0 mi NNW 8.1 mph - N/A   Clear
10:35 AM 51.8 °F - 32.0 °F 47% 30.20 in 10.0 mi North 9.2 mph 17.3 mph N/A   Clear
10:55 AM 53.6 °F - 32.0 °F 44% 30.20 in 10.0 mi NNW 6.9 mph - N/A   Clear
11:15 AM 53.6 °F - 32.0 °F 44% 30.20 in 10.0 mi NNW 8.1 mph - N/A   Clear
11:35 AM 53.6 °F - 32.0 °F 44% 30.20 in 10.0 mi NW 5.8 mph - N/A   Clear
11:55 AM 55.4 °F - 32.0 °F 41% 30.19 in 10.0 mi NW 4.6 mph - N/A   Clear
12:15 PM 55.4 °F - 30.2 °F 38% 30.19 in 10.0 mi NNW 6.9 mph - N/A   Clear
12:35 PM 59.0 °F - 30.2 °F 34% 30.19 in 10.0 mi NW 6.9 mph - N/A   Clear
12:55 PM 59.0 °F - 30.2 °F 34% 30.18 in 10.0 mi North 8.1 mph - N/A   Clear
1:15 PM 59.0 °F - 28.4 °F 31% 30.17 in 10.0 mi WNW 8.1 mph - N/A   Clear
1:35 PM 60.8 °F - 30.2 °F 31% 30.17 in 10.0 mi Calm Calm - N/A   Clear
1:55 PM 59.0 °F - 32.0 °F 36% 30.17 in 10.0 mi West 10.4 mph 18.4 mph N/A   Clear
2:15 PM 59.0 °F - 32.0 °F 36% 30.17 in 10.0 mi WNW 9.2 mph - N/A   Clear
2:35 PM 59.0 °F - 32.0 °F 36% 30.17 in 10.0 mi West 12.7 mph 18.4 mph N/A   Clear
2:55 PM 59.0 °F - 33.8 °F 39% 30.18 in 10.0 mi West 12.7 mph 18.4 mph N/A   Clear
3:15 PM 59.0 °F - 33.8 °F 39% 30.18 in 10.0 mi West 12.7 mph 18.4 mph N/A   Clear
3:35 PM 59.0 °F - 33.8 °F 39% 30.18 in 10.0 mi West 11.5 mph 17.3 mph N/A   Clear
3:55 PM 59.0 °F - 35.6 °F 42% 30.17 in 10.0 mi WNW 9.2 mph 18.4 mph N/A   Clear
4:15 PM 57.2 °F - 35.6 °F 44% 30.18 in 10.0 mi WNW 10.4 mph 17.3 mph N/A   Clear
4:35 PM 55.4 °F - 35.6 °F 47% 30.17 in 10.0 mi West 9.2 mph 16.1 mph N/A   Clear
4:55 PM 55.4 °F - 35.6 °F 47% 30.18 in 10.0 mi West 9.2 mph - N/A   Clear
5:15 PM 55.4 °F - 35.6 °F 47% 30.18 in 10.0 mi West 9.2 mph - N/A   Clear
5:35 PM 53.6 °F - 35.6 °F 51% 30.19 in 10.0 mi West 8.1 mph - N/A   Clear
5:55 PM 53.6 °F - 37.4 °F 54% 30.18 in 10.0 mi West 5.8 mph - N/A   Clear
6:15 PM 51.8 °F - 37.4 °F 58% 30.19 in 10.0 mi Calm Calm - N/A   Clear
6:35 PM 51.8 °F - 37.4 °F 58% 30.19 in 10.0 mi Calm Calm - N/A   Clear
6:55 PM 48.2 °F - 37.4 °F 66% 30.20 in 10.0 mi Calm Calm - N/A   Clear
7:15 PM 46.4 °F - 37.4 °F 71% 30.21 in 10.0 mi Calm Calm - N/A   Clear
7:35 PM 51.8 °F - 37.4 °F 58% 30.22 in 10.0 mi NNW 3.5 mph - N/A   Clear
7:55 PM 50.0 °F - 37.4 °F 62% 30.22 in 10.0 mi NNW 3.5 mph - N/A   Clear
8:15 PM 50.0 °F - 37.4 °F 62% 30.23 in 10.0 mi NNW 3.5 mph - N/A   Clear
8:35 PM 48.2 °F - 35.6 °F 62% 30.24 in 10.0 mi NNW 3.5 mph - N/A   Clear
8:55 PM 46.4 °F 45.2 °F 35.6 °F 66% 30.25 in 10.0 mi North 3.5 mph - N/A   Clear
9:15 PM 46.4 °F 44.3 °F 35.6 °F 66% 30.25 in 10.0 mi North 4.6 mph - N/A   Clear
9:35 PM 44.6 °F - 35.6 °F 71% 30.25 in 10.0 mi Calm Calm - N/A   Clear
9:55 PM 44.6 °F - 33.8 °F 66% 30.25 in 10.0 mi Calm Calm - N/A   Clear
10:15 PM 44.6 °F 43.1 °F 33.8 °F 66% 30.26 in 10.0 mi NNW 3.5 mph - N/A   Clear
10:35 PM 44.6 °F 43.1 °F 33.8 °F 66% 30.27 in 10.0 mi NNW 3.5 mph - N/A   Clear
10:55 PM 41.0 °F - 33.8 °F 76% 30.26 in 10.0 mi Calm Calm - N/A   Clear
11:15 PM 37.4 °F - 33.8 °F 87% 30.27 in 10.0 mi Calm Calm - N/A   Clear
11:35 PM 41.0 °F - 33.8 °F 76% 30.27 in 10.0 mi Calm Calm - N/A   Clear
11:55 PM 37.4 °F - 33.8 °F 87% 30.27 in 10.0 mi Calm Calm - N/A   Clear